DW9005 Weather Reports


time (UTC)temp
F
wind
direction
speed
knots
gust
knots
rain 1hr
in
rain 24hr
in
rain mn
in
humidity
%
barometer
mb
20260510013040 67 157 0.0 0.0 0.00 0.00 0.00 89 1013.4
20260510011546 67 186 0.0 0.0 0.00 0.00 0.00 89 1013.2
20260510010039 68 167 0.0 0.0 0.00 0.00 0.00 88 1012.9
20260510004539 68 171 0.0 0.0 0.00 0.00 0.00 88 1012.7
20260510003041 69 346 0.0 0.0 0.00 0.00 0.00 87 1012.7
20260510001538 69 172 0.0 0.0 0.00 0.00 0.00 86 1012.7
20260510000041 69 151 0.0 0.0 0.00 0.00 0.00 85 1012.4
20260509234530 70 128 0.0 0.0 0.00 0.00 0.00 85 1012.3
20260509233020 70 171 0.0 0.0 0.00 0.00 0.00 84 1012.1
20260509231510 71 165 0.0 0.0 0.00 0.00 0.00 83 1012.0
20260509230002 71 123 0.0 0.0 0.00 0.00 0.00 82 1011.7
20260509224555 72 171 0.0 0.0 0.00 0.00 0.00 81 1011.8
20260509223052 72 157 0.0 0.0 0.00 0.00 0.00 81 1011.7
20260509221550 72 175 0.0 0.0 0.00 0.00 0.00 79 1011.5
20260509220049 73 190 0.0 0.0 0.00 0.00 0.00 78 1011.4
20260509214549 73 197 0.0 0.0 0.00 0.00 0.00 77 1011.4
20260509213104 74 161 0.0 0.0 0.00 0.00 0.00 76 1011.4
20260509211552 74 136 0.0 0.0 0.00 0.00 0.00 75 1011.2
20260509210101 75 164 0.0 0.0 0.00 0.00 0.00 73 1011.0
20260509204529 75 260 0.0 0.0 0.00 0.00 0.00 70 1011.1
20260509203038 75 184 0.0 0.0 0.00 0.00 0.00 73 1011.3
20260509201511 75 162 0.0 0.0 0.00 0.00 0.00 73 1011.2
20260509200011 75 138 0.0 0.0 0.00 0.00 0.00 71 1011.3
20260509194552 75 142 0.0 0.0 0.00 0.00 0.00 73 1011.5
20260509193052 75 68 0.0 0.0 0.00 0.00 0.00 72 1011.5
20260509191539 76 19 0.0 0.0 0.00 0.00 0.00 72 1011.9
20260509190031 75 249 0.0 0.0 0.00 0.00 0.00 75 1012.1
20260509184511 74 200 0.0 0.0 0.00 0.00 0.00 77 1012.1
20260509183009 73 104 0.0 0.0 0.00 0.00 0.00 75 1012.2
20260509181558 73 137 0.0 0.0 0.00 0.00 0.00 77 1012.5
20260509180049 72 210 0.0 0.0 0.00 0.00 0.00 80 1012.6
20260509174529 71 142 0.0 0.0 0.00 0.00 0.00 80 1012.8
20260509173028 71 128 0.0 0.0 0.00 0.00 0.00 79 1012.8
20260509171511 71 242 0.0 0.0 0.00 0.00 0.00 81 1012.7
20260509170013 70 110 0.0 0.0 0.00 0.00 0.00 80 1012.7
20260509164547 70 261 0.0 0.0 0.00 0.00 0.00 81 1012.9
20260509163043 69 41 0.0 0.0 0.00 0.00 0.00 85 1013.3
20260509161531 68 250 0.0 0.0 0.00 0.00 0.00 86 1013.1
20260509160020 67 173 0.0 0.0 0.00 0.00 0.00 86 1013.3
20260509154502 67 167 0.0 0.0 0.00 0.00 0.00 87 1013.5
20260509153105 66 244 0.0 0.0 0.00 0.00 0.00 89 1013.6
20260509151543 65 147 0.0 0.0 0.00 0.00 0.00 90 1013.4
20260509150040 64 319 0.0 0.0 0.00 0.00 0.00 90 1013.4
20260509144519 64 286 0.0 0.0 0.00 0.00 0.00 91 1013.5
20260509143018 64 24 0.0 0.0 0.00 0.00 0.00 91 1013.4
20260509141600 64 268 0.0 0.0 0.00 0.00 0.00 91 1013.6
20260509140105 63 169 0.0 0.0 0.00 0.00 0.00 91 1013.6
20260509134540 63 277 0.0 0.0 0.00 0.00 0.00 92 1013.4
20260509133036 63 334 0.0 0.0 0.00 0.00 0.00 92 1013.0
20260509131517 63 315 0.0 0.0 0.00 0.00 0.00 92 1012.7
20260509130117 62 244 0.0 0.0 0.00 0.00 0.00 92 1012.5
20260509124610 62 248 0.0 0.0 0.00 0.00 0.00 92 1012.6
20260509123057 62 250 0.0 0.0 0.00 0.00 0.00 93 1012.5
20260509121541 62 207 0.0 0.0 0.00 0.00 0.00 92 1012.3
20260509120039 0 0.0 0.0 0.00 0.00 0.00 1012.4
20260509114514 0 0.0 0.0 0.00 0.00 0.00 1012.6
20260509113009 0 0.0 0.0 0.00 0.00 0.00 1012.4
20260509111548 0 0.0 0.0 0.00 0.00 0.00 1012.5
20260509110047 0 0.0 0.0 0.00 0.00 0.00 1012.4
20260509104523 0 0.0 0.0 0.00 0.00 0.00 1011.9
20260509103018 0 0.0 0.0 0.00 0.00 0.00 1011.8
20260509101602 0 0.0 0.0 0.00 0.00 0.00 1011.9
20260509100054 0 0.0 0.0 0.00 0.00 0.00 1011.3
20260509094539 0 0.0 0.0 0.00 0.00 0.00 1011.1
20260509093035 61 113 0.0 0.0 0.00 0.00 0.00 93 1011.7
20260509091535 61 149 0.0 0.0 0.00 0.00 0.00 93 1010.8
20260509090029 59 199 0.0 0.0 0.00 0.00 0.00 93 1011.1
20260509084529 58 106 0.0 0.0 0.00 0.00 0.00 92 1011.9
20260509083025 58 254 0.0 0.0 0.00 0.00 0.00 92 1012.6
20260509081525 58 253 0.0 0.0 0.00 0.00 0.00 92 1012.7
20260509080022 58 251 0.0 0.0 0.00 0.00 0.00 93 1012.2
20260509074504 57 316 0.0 0.0 0.00 0.00 0.00 93 1012.3
20260509073011 57 316 0.0 0.0 0.00 0.00 0.00 93 1012.3
20260509071545 56 316 0.0 0.0 0.00 0.00 0.00 93 1012.3
20260509070048 56 209 0.0 0.0 0.00 0.00 0.00 93 1012.0
20260509064526 55 211 0.0 0.0 0.00 0.00 0.00 92 1012.4
20260509063028 55 211 0.0 0.0 0.00 0.00 0.00 92 1012.0
20260509061506 55 211 0.0 0.0 0.00 0.00 0.00 92 1011.8
20260509060005 55 211 0.0 0.0 0.00 0.00 0.00 92 1012.2
20260509054553 55 211 0.0 0.0 0.00 0.00 0.00 92 1012.7
20260509053044 56 211 0.0 0.0 0.00 0.00 0.00 92 1013.0
20260509051524 56 210 0.0 0.0 0.00 0.00 0.00 92 1012.9
20260509050022 56 210 0.0 0.0 0.00 0.00 0.00 92 1013.2
20260509044510 56 211 0.0 0.0 0.00 0.00 0.00 92 1013.1
20260509043012 56 211 0.0 0.0 0.00 0.00 0.00 92 1013.1
20260509041507 57 211 0.0 0.0 0.00 0.00 0.00 91 1013.1
20260509040005 57 215 0.0 0.0 0.00 0.00 0.00 91 1013.1
20260509034504 57 213 0.0 0.0 0.00 0.00 0.00 91 1013.1
20260509033003 57 216 0.0 0.0 0.00 0.00 0.00 91 1013.2
20260509031503 57 196 0.0 0.0 0.00 0.00 0.00 91 1012.9
20260509030002 57 159 0.0 0.0 0.00 0.00 0.00 91 1013.2
20260509024502 58 177 0.0 0.0 0.00 0.00 0.00 91 1013.3
20260509023044 58 177 0.0 0.0 0.00 0.00 0.00 91 1013.6
20260509021545 58 177 0.0 0.0 0.00 0.00 0.00 91 1013.7
20260509020026 58 177 0.0 0.0 0.00 0.00 0.00 90 1013.3
20260509014525 59 177 0.0 0.0 0.00 0.00 0.00 90 1013.1